Home > Weather > Plauen > Past weeks

Flag for Germany Past Weather in Plauen, Saxony, Germany — Yesterday and Last 2 Weeks

Now
59 °F

Clear.


Feels Like: 60 °F
Forecast: 62 / 73 °F
Wind: 3 mph from East

Location: Karlovy Vary Airport

Current Time: Jul 28, 2016 at 10:22:46 PM

Latest Report: Jul 28, 2016 at 10:00 PM


Visibility: 10 mi

Pressure: 30.04 "Hg

Humidity: 94%

Dew Point: 57 °F

Location of PlauenLocation

Past Weather in Plauen — Graph

°F

Plauen Temperature Yesterday

Maximum temperature yesterday: 73 °F (at 10:30 AM)
Minimum temperature yesterday: 59 °F (at 6:00 AM)
Average temperature yesterday: 65 °F

High & Low Weather Summary for the Past Weeks

 TemperatureHumidityPressure
High81 °F (Jul 20, 3:00 PM)100% (Jul 14, 1:00 AM)30.30 "Hg (Jul 14, 1:00 AM)
Low41 °F (Jul 16, 4:00 AM)39% (Jul 20, 4:00 PM)29.89 "Hg (Jul 14, 3:00 AM)
Average65 °F77%30.11 "Hg
* Reported Jul 13 9:00 PM — Jul 28 9:00 PM, Plauen, Weather by CustomWeather, © 2016

Note: Actual official high and low records may vary slightly from our data, if they occured in-between our weather recording intervals... More about our weather records

Advertising

Plauen Weather History for the Previous 24 Hours

Scroll right to see more
 ConditionsComfort  
Time TempWeatherWind HumidityBarometerVisibility
9:00 PM
Thu, Jul 28
64 °FSunny.No wind78%30.01 "Hg10 mi
8:30 PM68 °FSunny.1 mph69%30.01 "Hg10 mi
8:00 PM72 °FPassing clouds.No wind61%30.01 "HgN/A
7:30 PM72 °FSunny.No wind61%30.01 "Hg10 mi
7:00 PM72 °FSunny.1 mph57%30.01 "Hg10 mi
6:30 PM72 °FPassing clouds.3 mph57%30.04 "HgN/A
6:00 PM73 °FPassing clouds.6 mph53%30.04 "HgN/A
5:30 PM73 °FPassing clouds.5 mph53%30.04 "HgN/A
5:00 PM73 °FPassing clouds.3 mph53%30.04 "HgN/A
4:30 PM72 °FPassing clouds.3 mph57%30.04 "HgN/A
4:00 PM72 °FPassing clouds.6 mph57%30.04 "HgN/A
3:30 PM72 °FPassing clouds.6 mph57%30.07 "HgN/A
3:00 PM70 °FPassing clouds.6 mph60%30.07 "HgN/A
2:30 PM70 °FPassing clouds.8 mph60%30.07 "HgN/A
2:00 PM70 °FBroken clouds.6 mph60%30.07 "HgN/A
1:30 PM72 °FPassing clouds.8 mph53%30.07 "HgN/A
1:00 PM72 °FScattered clouds.8 mph53%30.07 "HgN/A
12:30 PM72 °FScattered clouds.8 mph53%30.07 "HgN/A
12:00 PM70 °FPassing clouds.6 mph60%30.09 "HgN/A
11:30 AM68 °FPassing clouds.6 mph60%30.09 "HgN/A
11:00 AM68 °FPassing clouds.3 mph64%30.09 "HgN/A
10:30 AM66 °FPassing clouds.2 mph73%30.09 "HgN/A
10:00 AM66 °FPassing clouds.2 mph78%30.09 "HgN/A
9:30 AM66 °FPassing clouds.2 mph78%30.09 "HgN/A
9:00 AM64 °FPassing clouds.2 mph83%30.09 "HgN/A
8:30 AM63 °FPassing clouds.1 mph83%30.09 "HgN/A
8:00 AM61 °FPassing clouds.2 mph88%30.09 "Hg6 mi
7:47 AM61 °FFog.1 mph88%30.09 "Hg3 mi
7:00 AM57 °FFog.1 mph94%30.07 "Hg3 mi
6:00 AM59 °FLight fog.6 mph94%30.07 "Hg4 mi
5:00 AM59 °FLight fog.1 mph94%30.07 "Hg4 mi
4:00 AM59 °FPassing clouds.3 mph94%30.07 "HgN/A
3:00 AM59 °FFog.3 mph100%30.07 "Hg3 mi
2:00 AM61 °FFog.6 mph94%30.07 "Hg2 mi
1:00 AM61 °FFog.3 mph100%30.07 "Hg2 mi
12:00 AM61 °FFog.3 mph100%30.07 "Hg2 mi
10:46 PM
Wed, Jul 27
59 °FFog.No wind100%30.04 "Hg1 mi
10:00 PM61 °FFog.No wind94%30.04 "Hg1 mi
Weather by CustomWeather, © 2016

See weather overviewHow to use our weather pages